Time,TemperatureF,DewpointF,PressureIn,WindDirection,WindDirectionDegrees,WindSpeedMPH,WindSpeedGustMPH,Humidity,HourlyPrecipIn,Conditions,Clouds,dailyrainin,SolarRadiationWatts/m^2,SoftwareType,DateUTC
2013-02-12 00:00:00,28.6,22.9,30.23,NW,305,3.0,10.0,79,0.00,,OVC019,0.00,0.00,VWS V14.01,2013-02-12 06:00:00,
2013-02-12 00:05:00,28.5,22.8,30.23,WNW,303,9.0,9.0,79,0.00,,OVC019,0.00,0.00,VWS V14.01,2013-02-12 06:05:00,
2013-02-12 00:10:00,28.5,22.8,30.23,West,276,2.0,9.0,79,0.00,,OVC019,0.00,0.00,VWS V14.01,2013-02-12 06:10:00,
2013-02-12 00:15:00,28.5,22.8,30.23,West,268,0.0,6.0,79,0.00,,OVC019,0.00,0.00,VWS V14.01,2013-02-12 06:15:00,
2013-02-12 00:20:00,28.5,22.8,30.23,West,262,11.0,11.0,79,0.00,,OVC019,0.00,0.00,VWS V14.01,2013-02-12 06:20:00,
2013-02-12 00:25:00,28.5,22.8,30.23,WNW,295,0.0,0.0,79,0.00,,OVC019,0.00,0.00,VWS V14.01,2013-02-12 06:25:00,
2013-02-12 00:30:00,28.5,22.8,30.23,West,266,0.0,0.0,79,0.00,,OVC019,0.00,0.00,VWS V14.01,2013-02-12 06:30:00,
2013-02-12 00:35:00,28.5,22.8,30.23,WNW,294,0.0,5.0,79,0.00,,OVC019,0.00,0.00,VWS V14.01,2013-02-12 06:35:00,
2013-02-12 00:41:00,28.5,22.8,30.23,WNW,289,0.0,5.0,79,0.00,,OVC019,0.00,0.00,VWS V14.01,2013-02-12 06:41:00,
2013-02-12 00:46:00,28.4,22.7,30.24,WNW,303,11.0,15.0,79,0.00,,OVC019,0.00,0.00,VWS V14.01,2013-02-12 06:46:00,
2013-02-12 00:51:00,28.4,22.7,30.24,West,276,0.0,11.0,79,0.00,,OVC019,0.00,0.00,VWS V14.01,2013-02-12 06:51:00,
2013-02-12 00:56:00,28.3,22.6,30.23,NW,305,6.0,10.0,79,0.00,,OVC019,0.00,0.00,VWS V14.01,2013-02-12 06:56:00,
2013-02-12 01:01:00,28.2,22.5,30.23,WNW,286,0.0,0.0,79,0.00,,OVC019,0.00,0.00,VWS V14.01,2013-02-12 07:01:00,
2013-02-12 01:06:00,28.1,22.4,30.24,West,278,0.0,0.0,79,0.00,,OVC017,0.00,0.00,VWS V14.01,2013-02-12 07:06:00,
2013-02-12 01:11:00,28.1,22.4,30.23,West,275,0.0,10.0,79,0.00,,OVC017,0.00,0.00,VWS V14.01,2013-02-12 07:11:00,
2013-02-12 01:16:00,28.1,22.4,30.23,West,268,0.0,0.0,79,0.00,,OVC017,0.00,0.00,VWS V14.01,2013-02-12 07:16:00,
2013-02-12 01:21:00,28.1,22.4,30.24,WNW,294,0.0,0.0,79,0.00,,OVC017,0.00,0.00,VWS V14.01,2013-02-12 07:21:00,
2013-02-12 01:26:00,28.1,22.4,30.23,WNW,293,0.0,0.0,79,0.00,,OVC017,0.00,0.00,VWS V14.01,2013-02-12 07:26:00,
2013-02-12 01:31:00,28.1,22.4,30.24,WNW,296,0.0,0.0,79,0.00,,OVC017,0.00,0.00,VWS V14.01,2013-02-12 07:31:00,
2013-02-12 01:36:00,28.1,22.4,30.23,WNW,286,0.0,0.0,79,0.00,,OVC017,0.00,0.00,VWS V14.01,2013-02-12 07:36:00,
2013-02-12 01:41:00,28.2,22.5,30.23,WSW,253,0.0,0.0,79,0.00,,OVC017,0.00,0.00,VWS V14.01,2013-02-12 07:41:00,
2013-02-12 01:46:00,28.2,22.5,30.23,NW,304,0.0,3.0,79,0.00,,OVC017,0.00,0.00,VWS V14.01,2013-02-12 07:46:00,
2013-02-12 01:51:00,28.2,22.5,30.23,WNW,303,0.0,0.0,79,0.00,,OVC017,0.00,0.00,VWS V14.01,2013-02-12 07:51:00,
2013-02-12 01:56:00,28.3,22.6,30.23,West,266,0.0,0.0,79,0.00,,OVC017,0.00,0.00,VWS V14.01,2013-02-12 07:56:00,
2013-02-12 02:01:00,28.3,22.6,30.24,West,278,0.0,0.0,79,0.00,,OVC017,0.00,0.00,VWS V14.01,2013-02-12 08:01:00,
2013-02-12 02:06:00,28.3,22.6,30.23,NW,312,0.0,0.0,79,0.00,,OVC017,0.00,0.00,VWS V14.01,2013-02-12 08:06:00,
2013-02-12 02:11:00,28.3,22.6,30.23,West,278,0.0,0.0,79,0.00,,OVC017,0.00,0.00,VWS V14.01,2013-02-12 08:11:00,
2013-02-12 02:16:00,28.3,22.6,30.23,West,279,0.0,0.0,79,0.00,,OVC017,0.00,0.00,VWS V14.01,2013-02-12 08:16:00,
2013-02-12 02:21:00,28.3,22.6,30.24,West,278,0.0,6.0,79,0.00,,OVC017,0.00,0.00,VWS V14.01,2013-02-12 08:21:00,
2013-02-12 02:26:00,28.4,22.7,30.24,West,273,0.0,0.0,79,0.00,,OVC017,0.00,0.00,VWS V14.01,2013-02-12 08:26:00,
2013-02-12 02:31:00,28.4,22.7,30.24,West,265,0.0,0.0,79,0.00,,OVC017,0.00,0.00,VWS V14.01,2013-02-12 08:31:00,
2013-02-12 02:36:00,28.4,22.7,30.24,West,273,0.0,0.0,79,0.00,,OVC017,0.00,0.00,VWS V14.01,2013-02-12 08:36:00,
2013-02-12 02:41:00,28.5,22.8,30.24,WNW,282,0.0,0.0,79,0.00,,OVC017,0.00,0.00,VWS V14.01,2013-02-12 08:41:00,
2013-02-12 02:46:00,28.5,22.8,30.24,West,275,0.0,0.0,79,0.00,,OVC017,0.00,0.00,VWS V14.01,2013-02-12 08:46:00,
2013-02-12 02:51:00,28.5,22.8,30.24,West,262,0.0,0.0,79,0.00,,OVC017,0.00,0.00,VWS V14.01,2013-02-12 08:51:00,
2013-02-12 02:56:00,28.5,22.8,30.25,West,264,0.0,0.0,79,0.00,,OVC017,0.00,0.00,VWS V14.01,2013-02-12 08:56:00,
2013-02-12 03:01:00,28.5,22.8,30.24,West,278,0.0,0.0,79,0.00,,OVC017,0.00,0.00,VWS V14.01,2013-02-12 09:01:00,
2013-02-12 03:06:00,28.5,22.8,30.23,NW,311,0.0,0.0,79,0.00,,OVC017,0.00,0.00,VWS V14.01,2013-02-12 09:06:00,
2013-02-12 03:11:00,28.4,22.7,30.23,WNW,290,0.0,0.0,79,0.00,,OVC019,0.00,0.00,VWS V14.01,2013-02-12 09:11:00,
2013-02-12 03:16:00,28.4,22.7,30.23,NW,313,0.0,0.0,79,0.00,,OVC019,0.00,0.00,VWS V14.01,2013-02-12 09:16:00,
2013-02-12 03:21:00,28.4,22.7,30.23,West,281,0.0,0.0,79,0.00,,OVC019,0.00,0.00,VWS V14.01,2013-02-12 09:21:00,
2013-02-12 03:26:00,28.4,22.7,30.23,West,271,0.0,0.0,79,0.00,,OVC019,0.00,0.00,VWS V14.01,2013-02-12 09:26:00,
2013-02-12 03:31:00,28.4,22.7,30.23,WNW,295,6.0,6.0,79,0.00,,OVC019,0.00,0.00,VWS V14.01,2013-02-12 09:31:00,
2013-02-12 03:36:00,28.4,22.7,30.23,WNW,289,0.0,7.0,79,0.00,,OVC019,0.00,0.00,VWS V14.01,2013-02-12 09:36:00,
2013-02-12 03:41:00,28.4,22.7,30.23,WNW,282,0.0,0.0,79,0.00,,OVC019,0.00,0.00,VWS V14.01,2013-02-12 09:41:00,
2013-02-12 03:46:00,28.4,22.7,30.22,WNW,300,0.0,0.0,79,0.00,,OVC019,0.00,0.00,VWS V14.01,2013-02-12 09:46:00,
2013-02-12 03:52:00,28.4,22.7,30.22,NW,306,0.0,0.0,79,0.00,,OVC019,0.00,0.00,VWS V14.01,2013-02-12 09:52:00,
2013-02-12 03:57:00,28.4,22.7,30.22,WNW,286,0.0,0.0,79,0.00,,OVC019,0.00,0.00,VWS V14.01,2013-02-12 09:57:00,
2013-02-12 04:02:00,28.4,22.7,30.21,WNW,286,0.0,0.0,79,0.00,,OVC019,0.00,0.00,VWS V14.01,2013-02-12 10:02:00,
2013-02-12 04:07:00,28.4,22.7,30.21,WNW,286,0.0,0.0,79,0.00,,OVC019,0.00,0.00,VWS V14.01,2013-02-12 10:07:00,
2013-02-12 04:12:00,28.4,22.7,30.21,NNW,327,0.0,0.0,79,0.00,,OVC019,0.00,0.00,VWS V14.01,2013-02-12 10:12:00,
2013-02-12 04:17:00,28.4,22.7,30.20,WNW,303,0.0,0.0,79,0.00,,OVC019,0.00,0.00,VWS V14.01,2013-02-12 10:17:00,
2013-02-12 04:22:00,28.3,22.6,30.20,NW,312,0.0,0.0,79,0.00,,OVC019,0.00,0.00,VWS V14.01,2013-02-12 10:22:00,
2013-02-12 04:27:00,28.3,22.6,30.20,NW,316,0.0,0.0,79,0.00,,OVC019,0.00,0.00,VWS V14.01,2013-02-12 10:27:00,
2013-02-12 04:32:00,28.3,22.6,30.20,West,264,0.0,0.0,79,0.00,,OVC019,0.00,0.00,VWS V14.01,2013-02-12 10:32:00,
2013-02-12 04:37:00,28.3,22.6,30.21,West,276,0.0,0.0,79,0.00,,OVC019,0.00,0.00,VWS V14.01,2013-02-12 10:37:00,
2013-02-12 04:42:00,28.2,22.5,30.21,NW,314,0.0,0.0,79,0.00,,OVC019,0.00,0.00,VWS V14.01,2013-02-12 10:42:00,
2013-02-12 04:47:00,28.2,22.5,30.21,NW,316,0.0,5.0,79,0.00,,OVC019,0.00,0.00,VWS V14.01,2013-02-12 10:47:00,
2013-02-12 04:52:00,28.2,22.5,30.20,NW,308,0.0,9.0,79,0.00,,OVC019,0.00,0.00,VWS V14.01,2013-02-12 10:52:00,
2013-02-12 04:57:00,28.1,22.4,30.20,NW,318,2.0,5.0,79,0.00,,OVC019,0.00,0.00,VWS V14.01,2013-02-12 10:57:00,
2013-02-12 05:02:00,28.0,22.3,30.20,NNW,341,0.0,0.0,79,0.00,,OVC019,0.00,0.00,VWS V14.01,2013-02-12 11:02:00,
2013-02-12 05:07:00,27.9,21.9,30.20,NW,311,0.0,0.0,78,0.00,,OVC019,0.00,0.00,VWS V14.01,2013-02-12 11:07:00,
2013-02-12 05:12:00,27.7,22.0,30.20,WNW,295,0.0,0.0,79,0.00,,OVC019,0.00,0.00,VWS V14.01,2013-02-12 11:12:00,
2013-02-12 05:17:00,27.6,21.6,30.20,WNW,300,0.0,0.0,78,0.00,,OVC019,0.00,0.00,VWS V14.01,2013-02-12 11:17:00,
2013-02-12 05:22:00,27.3,21.4,30.21,WNW,286,0.0,0.0,78,0.00,,OVC019,0.00,0.00,VWS V14.01,2013-02-12 11:22:00,
2013-02-12 05:27:00,27.2,21.3,30.21,WNW,286,0.0,0.0,78,0.00,,OVC019,0.00,0.00,VWS V14.01,2013-02-12 11:27:00,
2013-02-12 05:32:00,27.0,21.1,30.21,WNW,286,0.0,0.0,78,0.00,,OVC019,0.00,0.00,VWS V14.01,2013-02-12 11:32:00,
2013-02-12 05:37:00,26.8,21.2,30.21,WNW,286,0.0,0.0,79,0.00,,OVC019,0.00,0.00,VWS V14.01,2013-02-12 11:37:00,
2013-02-12 05:42:00,26.7,21.1,30.20,WNW,286,0.0,0.0,79,0.00,,OVC019,0.00,0.00,VWS V14.01,2013-02-12 11:42:00,
2013-02-12 05:47:00,26.5,20.9,30.21,WNW,286,0.0,0.0,79,0.00,,OVC019,0.00,0.00,VWS V14.01,2013-02-12 11:47:00,
2013-02-12 05:52:00,26.3,20.7,30.21,WNW,286,0.0,0.0,79,0.00,,OVC017,0.00,0.00,VWS V14.01,2013-02-12 11:52:00,
2013-02-12 05:57:00,26.2,20.6,30.20,WNW,286,0.0,0.0,79,0.00,,OVC017,0.00,0.00,VWS V14.01,2013-02-12 11:57:00,
2013-02-12 06:02:00,25.9,20.3,30.20,WNW,289,0.0,0.0,79,0.00,,OVC017,0.00,0.00,VWS V14.01,2013-02-12 12:02:00,
2013-02-12 06:07:00,25.7,20.1,30.21,WNW,289,0.0,0.0,79,0.00,,OVC017,0.00,0.00,VWS V14.01,2013-02-12 12:07:00,
2013-02-12 06:12:00,25.6,20.3,30.21,WNW,289,0.0,0.0,80,0.00,,OVC017,0.00,0.00,VWS V14.01,2013-02-12 12:12:00,
2013-02-12 06:17:00,25.4,20.1,30.21,WNW,289,0.0,0.0,80,0.00,,OVC017,0.00,0.00,VWS V14.01,2013-02-12 12:17:00,
2013-02-12 06:22:00,25.3,20.0,30.21,WNW,289,0.0,0.0,80,0.00,,OVC017,0.00,0.00,VWS V14.01,2013-02-12 12:22:00,
2013-02-12 06:27:00,25.1,19.8,30.21,WNW,289,0.0,0.0,80,0.00,,OVC017,0.00,0.00,VWS V14.01,2013-02-12 12:27:00,
2013-02-12 06:32:00,24.9,19.6,30.21,WNW,289,0.0,0.0,80,0.00,,OVC017,0.00,0.00,VWS V14.01,2013-02-12 12:32:00,
2013-02-12 06:37:00,24.8,19.8,30.21,WNW,289,0.0,0.0,81,0.00,,OVC017,0.00,0.00,VWS V14.01,2013-02-12 12:37:00,
2013-02-12 06:42:00,24.6,19.6,30.22,WNW,289,0.0,0.0,81,0.00,,OVC017,0.00,0.00,VWS V14.01,2013-02-12 12:42:00,
2013-02-12 06:47:00,24.5,19.5,30.22,WNW,289,0.0,0.0,81,0.00,,OVC017,0.00,0.00,VWS V14.01,2013-02-12 12:47:00,
2013-02-12 06:52:00,24.3,19.3,30.22,WNW,289,0.0,0.0,81,0.00,,OVC017,0.00,0.00,VWS V14.01,2013-02-12 12:52:00,
2013-02-12 06:57:00,24.2,19.5,30.22,WNW,289,0.0,0.0,82,0.00,,OVC017,0.00,0.00,VWS V14.01,2013-02-12 12:57:00,
2013-02-12 07:02:00,24.1,19.4,30.22,WNW,289,0.0,0.0,82,0.00,,OVC017,0.00,0.00,VWS V14.01,2013-02-12 13:02:00,
2013-02-12 07:07:00,23.9,19.2,30.22,WNW,289,0.0,0.0,82,0.00,,OVC017,0.00,0.00,VWS V14.01,2013-02-12 13:07:00,
2013-02-12 07:12:00,23.7,19.0,30.21,WSW,251,0.0,0.0,82,0.00,,CLR,0.00,5.00,VWS V14.01,2013-02-12 13:12:00,
2013-02-12 07:17:00,23.6,18.9,30.21,SW,226,0.0,0.0,82,0.00,,CLR,0.00,9.00,VWS V14.01,2013-02-12 13:17:00,
2013-02-12 07:22:00,23.4,19.0,30.21,SW,226,0.0,0.0,83,0.00,,CLR,0.00,12.00,VWS V14.01,2013-02-12 13:22:00,
2013-02-12 07:27:00,23.3,18.9,30.21,SW,226,0.0,0.0,83,0.00,,CLR,0.00,16.00,VWS V14.01,2013-02-12 13:27:00,
2013-02-12 07:32:00,23.3,18.9,30.21,SW,226,0.0,0.0,83,0.00,,CLR,0.00,19.00,VWS V14.01,2013-02-12 13:32:00,
2013-02-12 07:37:00,23.3,18.9,30.21,SW,226,0.0,0.0,83,0.00,,CLR,0.00,25.00,VWS V14.01,2013-02-12 13:37:00,
2013-02-12 07:42:00,23.5,19.4,30.21,SW,226,0.0,0.0,84,0.00,,CLR,0.00,33.00,VWS V14.01,2013-02-12 13:42:00,
2013-02-12 07:47:00,23.8,20.0,30.21,SW,226,0.0,0.0,85,0.00,,CLR,0.00,54.00,VWS V14.01,2013-02-12 13:47:00,
2013-02-12 07:52:00,24.0,20.1,30.20,SW,226,0.0,0.0,85,0.00,,CLR,0.00,70.00,VWS V14.01,2013-02-12 13:52:00,
2013-02-12 07:57:00,24.3,20.5,30.20,SW,226,0.0,0.0,85,0.00,,CLR,0.00,86.00,VWS V14.01,2013-02-12 13:57:00,
2013-02-12 08:02:00,25.1,21.5,30.20,WSW,247,0.0,0.0,86,0.00,,CLR,0.00,93.00,VWS V14.01,2013-02-12 14:02:00,
2013-02-12 08:07:00,25.6,21.7,30.20,SW,232,0.0,0.0,85,0.00,,CLR,0.00,100.00,VWS V14.01,2013-02-12 14:07:00,
2013-02-12 08:13:00,26.0,22.1,30.20,SW,228,0.0,0.0,85,0.00,,CLR,0.00,123.00,VWS V14.01,2013-02-12 14:13:00,
2013-02-12 08:18:00,26.2,22.3,30.19,SW,214,0.0,0.0,85,0.00,,CLR,0.00,142.00,VWS V14.01,2013-02-12 14:18:00,
2013-02-12 08:23:00,26.5,22.3,30.19,SSW,213,5.0,6.0,84,0.00,,CLR,0.00,156.00,VWS V14.01,2013-02-12 14:23:00,
2013-02-12 08:28:00,26.6,22.4,30.19,SSW,212,5.0,7.0,84,0.00,,CLR,0.00,149.00,VWS V14.01,2013-02-12 14:28:00,
2013-02-12 08:33:00,26.8,22.6,30.18,SW,218,6.0,7.0,84,0.00,,CLR,0.00,186.00,VWS V14.01,2013-02-12 14:33:00,
2013-02-12 08:38:00,27.1,22.9,30.18,SSW,204,6.0,6.0,84,0.00,,CLR,0.00,218.00,VWS V14.01,2013-02-12 14:38:00,
2013-02-12 08:43:00,27.4,23.2,30.19,SSW,195,7.0,7.0,84,0.00,,CLR,0.00,237.00,VWS V14.01,2013-02-12 14:43:00,
2013-02-12 08:48:00,27.5,23.0,30.18,SW,215,3.0,6.0,83,0.00,,CLR,0.00,230.00,VWS V14.01,2013-02-12 14:48:00,
2013-02-12 08:53:00,27.9,23.4,30.18,SSW,202,6.0,9.0,83,0.00,,CLR,0.00,223.00,VWS V14.01,2013-02-12 14:53:00,
2013-02-12 08:58:00,28.3,23.8,30.19,SSW,206,11.0,12.0,83,0.00,,CLR,0.00,250.00,VWS V14.01,2013-02-12 14:58:00,
2013-02-12 09:03:00,28.4,23.3,30.20,SSW,205,14.0,14.0,81,0.00,,CLR,0.00,264.00,VWS V14.01,2013-02-12 15:03:00,
2013-02-12 09:08:00,28.6,23.5,30.19,South,191,9.0,13.0,81,0.00,,CLR,0.00,295.00,VWS V14.01,2013-02-12 15:08:00,
2013-02-12 09:13:00,29.0,23.6,30.19,SW,230,4.0,10.0,80,0.00,,CLR,0.00,320.00,VWS V14.01,2013-02-12 15:13:00,
2013-02-12 09:18:00,29.4,23.7,30.19,SW,223,5.0,10.0,79,0.00,,CLR,0.00,329.00,VWS V14.01,2013-02-12 15:18:00,
2013-02-12 09:23:00,29.7,24.3,30.19,WSW,243,5.0,6.0,80,0.00,,CLR,0.00,339.00,VWS V14.01,2013-02-12 15:23:00,
2013-02-12 09:28:00,29.8,24.1,30.19,SW,234,8.0,8.0,79,0.00,,CLR,0.00,350.00,VWS V14.01,2013-02-12 15:28:00,
2013-02-12 09:33:00,30.1,24.1,30.20,SSW,194,11.0,12.0,78,0.00,,CLR,0.00,334.00,VWS V14.01,2013-02-12 15:33:00,
2013-02-12 09:38:00,29.7,23.7,30.20,SSW,211,10.0,12.0,78,0.00,,CLR,0.00,197.00,VWS V14.01,2013-02-12 15:38:00,
2013-02-12 09:43:00,29.3,23.6,30.20,SW,222,6.0,12.0,79,0.00,,CLR,0.00,142.00,VWS V14.01,2013-02-12 15:43:00,
2013-02-12 09:48:00,29.2,23.5,30.19,SW,219,5.0,7.0,79,0.00,,CLR,0.00,186.00,VWS V14.01,2013-02-12 15:48:00,
2013-02-12 09:53:00,29.7,24.0,30.19,SW,218,0.0,7.0,79,0.00,,CLR,0.00,243.00,VWS V14.01,2013-02-12 15:53:00,
2013-02-12 09:58:00,30.2,24.2,30.19,SW,230,0.0,0.0,78,0.00,,CLR,0.00,323.00,VWS V14.01,2013-02-12 15:58:00,
2013-02-12 10:03:00,30.9,24.9,30.19,SW,230,5.0,10.0,78,0.00,,CLR,0.00,341.00,VWS V14.01,2013-02-12 16:03:00,
2013-02-12 10:08:00,31.0,24.3,30.19,SW,218,4.0,10.0,76,0.00,,CLR,0.00,290.00,VWS V14.01,2013-02-12 16:08:00,
2013-02-12 10:13:00,31.1,24.8,30.19,SW,219,4.0,9.0,77,0.00,,CLR,0.00,318.00,VWS V14.01,2013-02-12 16:13:00,
2013-02-12 10:18:00,31.4,24.7,30.19,SW,216,5.0,6.0,76,0.00,,CLR,0.00,276.00,VWS V14.01,2013-02-12 16:18:00,
2013-02-12 10:23:00,31.7,24.7,30.19,SSW,195,5.0,6.0,75,0.00,,CLR,0.00,311.00,VWS V14.01,2013-02-12 16:23:00,
2013-02-12 10:28:00,31.9,24.9,30.19,SSW,208,5.0,11.0,75,0.00,,CLR,0.00,376.00,VWS V14.01,2013-02-12 16:28:00,
2013-02-12 10:33:00,32.3,25.3,30.18,South,180,6.0,7.0,75,0.00,,CLR,0.00,424.00,VWS V14.01,2013-02-12 16:33:00,
2013-02-12 10:38:00,33.3,25.6,30.18,South,186,2.0,6.0,73,0.00,,CLR,0.00,461.00,VWS V14.01,2013-02-12 16:38:00,
2013-02-12 10:43:00,33.4,25.4,30.18,SW,220,1.0,7.0,72,0.00,,CLR,0.00,462.00,VWS V14.01,2013-02-12 16:43:00,
2013-02-12 10:48:00,33.8,25.4,30.18,SSW,209,5.0,7.0,71,0.00,,CLR,0.00,427.00,VWS V14.01,2013-02-12 16:48:00,
2013-02-12 10:53:00,33.7,25.6,30.18,SSW,201,9.0,9.0,72,0.00,,CLR,0.00,469.00,VWS V14.01,2013-02-12 16:53:00,
2013-02-12 10:58:00,34.3,26.6,30.18,South,185,9.0,10.0,73,0.00,,CLR,0.00,496.00,VWS V14.01,2013-02-12 16:58:00,
2013-02-12 11:03:00,34.1,25.7,30.17,SSW,203,0.0,0.0,71,0.00,,CLR,0.00,471.00,VWS V14.01,2013-02-12 17:03:00,
2013-02-12 11:08:00,34.4,26.3,30.18,South,187,0.0,0.0,72,0.00,,CLR,0.00,534.00,VWS V14.01,2013-02-12 17:08:00,
2013-02-12 11:13:00,34.8,26.4,30.18,SW,222,0.0,0.0,71,0.00,,CLR,0.00,550.00,VWS V14.01,2013-02-12 17:13:00,
2013-02-12 11:18:00,35.0,26.2,30.17,SW,216,8.0,10.0,70,0.00,,CLR,0.00,466.00,VWS V14.01,2013-02-12 17:18:00,
2013-02-12 11:23:00,35.6,26.5,30.17,SSW,212,3.0,10.0,69,0.00,,CLR,0.00,483.00,VWS V14.01,2013-02-12 17:23:00,
2013-02-12 11:28:00,35.7,26.2,30.17,SW,231,4.0,11.0,68,0.00,,CLR,0.00,526.00,VWS V14.01,2013-02-12 17:28:00,
2013-02-12 11:33:00,36.1,26.2,30.17,SW,216,11.0,12.0,67,0.00,,CLR,0.00,512.00,VWS V14.01,2013-02-12 17:33:00,
2013-02-12 11:38:00,36.3,26.8,30.17,SW,227,8.0,10.0,68,0.00,,CLR,0.00,483.00,VWS V14.01,2013-02-12 17:38:00,
2013-02-12 11:43:00,36.9,27.0,30.17,SSW,212,5.0,11.0,67,0.00,,CLR,0.00,461.00,VWS V14.01,2013-02-12 17:43:00,
2013-02-12 11:48:00,37.2,27.3,30.17,WSW,241,10.0,12.0,67,0.00,,CLR,0.00,422.00,VWS V14.01,2013-02-12 17:48:00,
2013-02-12 11:53:00,37.2,26.5,30.17,SW,222,12.0,13.0,65,0.00,,CLR,0.00,464.00,VWS V14.01,2013-02-12 17:53:00,
2013-02-12 11:58:00,37.5,26.5,30.16,WSW,239,9.0,12.0,64,0.00,,CLR,0.00,462.00,VWS V14.01,2013-02-12 17:58:00,
2013-02-12 12:03:00,37.8,27.1,30.16,SSW,208,11.0,12.0,65,0.00,,CLR,0.00,425.00,VWS V14.01,2013-02-12 18:03:00,
2013-02-12 12:08:00,38.1,26.2,30.15,SW,225,0.0,11.0,62,0.00,,CLR,0.00,404.00,VWS V14.01,2013-02-12 18:08:00,
2013-02-12 12:14:00,38.4,28.0,30.14,SW,218,10.0,12.0,66,0.00,,CLR,0.00,454.00,VWS V14.01,2013-02-12 18:14:00,
2013-02-12 12:19:00,37.9,26.8,30.14,WSW,242,4.0,13.0,64,0.00,,CLR,0.00,338.00,VWS V14.01,2013-02-12 18:19:00,
2013-02-12 12:24:00,38.3,26.8,30.12,SW,215,0.0,8.0,63,0.00,,CLR,0.00,374.00,VWS V14.01,2013-02-12 18:24:00,
2013-02-12 12:29:00,38.3,27.2,30.13,WSW,243,0.0,13.0,64,0.00,,CLR,0.00,327.00,VWS V14.01,2013-02-12 18:29:00,
2013-02-12 12:34:00,38.5,26.6,30.12,SW,224,10.0,11.0,62,0.00,,CLR,0.00,424.00,VWS V14.01,2013-02-12 18:34:00,
2013-02-12 12:39:00,38.4,26.9,30.12,SW,218,6.0,8.0,63,0.00,,CLR,0.00,338.00,VWS V14.01,2013-02-12 18:39:00,
2013-02-12 12:44:00,38.4,27.3,30.11,SSW,212,8.0,8.0,64,0.00,,CLR,0.00,341.00,VWS V14.01,2013-02-12 18:44:00,
2013-02-12 12:49:00,38.7,27.6,30.11,WSW,248,4.0,11.0,64,0.00,,CLR,0.00,360.00,VWS V14.01,2013-02-12 18:49:00,
2013-02-12 12:54:00,39.3,27.0,30.10,SW,234,3.0,11.0,61,0.00,,CLR,0.00,401.00,VWS V14.01,2013-02-12 18:54:00,
2013-02-12 12:59:00,39.7,28.1,30.10,SW,224,5.0,7.0,63,0.00,,CLR,0.00,292.00,VWS V14.01,2013-02-12 18:59:00,
2013-02-12 13:04:00,40.1,28.1,30.09,SW,218,10.0,13.0,62,0.00,,CLR,0.00,383.00,VWS V14.01,2013-02-12 19:04:00,
2013-02-12 13:09:00,40.4,28.0,30.09,SW,225,11.0,13.0,61,0.00,,CLR,0.00,408.00,VWS V14.01,2013-02-12 19:09:00,
2013-02-12 13:14:00,40.4,27.6,30.09,WSW,241,5.0,10.0,60,0.00,,CLR,0.00,468.00,VWS V14.01,2013-02-12 19:14:00,
2013-02-12 13:19:00,40.8,28.0,30.09,WSW,253,3.0,9.0,60,0.00,,CLR,0.00,504.00,VWS V14.01,2013-02-12 19:19:00,
2013-02-12 13:24:00,40.9,26.9,30.09,WSW,241,4.0,12.0,57,0.00,,CLR,0.00,462.00,VWS V14.01,2013-02-12 19:24:00,
2013-02-12 13:29:00,41.3,27.6,30.09,SW,224,10.0,11.0,58,0.00,,CLR,0.00,441.00,VWS V14.01,2013-02-12 19:29:00,
2013-02-12 13:34:00,41.5,27.8,30.08,SW,228,12.0,13.0,58,0.00,,CLR,0.00,459.00,VWS V14.01,2013-02-12 19:34:00,
2013-02-12 13:39:00,41.9,27.8,30.08,WSW,247,14.0,17.0,57,0.00,,CLR,0.00,454.00,VWS V14.01,2013-02-12 19:39:00,
2013-02-12 13:44:00,41.5,27.0,30.08,WSW,253,5.0,11.0,56,0.00,,CLR,0.00,461.00,VWS V14.01,2013-02-12 19:44:00,
2013-02-12 13:49:00,41.8,27.3,30.08,West,262,0.0,12.0,56,0.00,,CLR,0.00,455.00,VWS V14.01,2013-02-12 19:49:00,
2013-02-12 13:54:00,42.3,28.2,30.07,SSW,212,7.0,10.0,57,0.00,,CLR,0.00,480.00,VWS V14.01,2013-02-12 19:54:00,
2013-02-12 13:59:00,42.8,28.2,30.07,SW,230,0.0,7.0,56,0.00,,CLR,0.00,413.00,VWS V14.01,2013-02-12 19:59:00,
2013-02-12 14:04:00,42.6,28.0,30.07,WSW,257,7.0,13.0,56,0.00,,CLR,0.00,415.00,VWS V14.01,2013-02-12 20:04:00,
2013-02-12 14:09:00,42.8,28.6,30.07,SW,228,4.0,9.0,57,0.00,,CLR,0.00,420.00,VWS V14.01,2013-02-12 20:09:00,
2013-02-12 14:14:00,43.1,27.6,30.07,SW,230,6.0,13.0,54,0.00,,CLR,0.00,369.00,VWS V14.01,2013-02-12 20:14:00,
2013-02-12 14:19:00,43.0,28.4,30.07,WSW,244,12.0,12.0,56,0.00,,CLR,0.00,383.00,VWS V14.01,2013-02-12 20:19:00,
2013-02-12 14:24:00,43.3,27.8,30.07,WSW,255,5.0,11.0,54,0.00,,CLR,0.00,404.00,VWS V14.01,2013-02-12 20:24:00,
2013-02-12 14:29:00,43.6,28.5,30.06,SW,229,5.0,7.0,55,0.00,,CLR,0.00,343.00,VWS V14.01,2013-02-12 20:29:00,
2013-02-12 14:34:00,43.9,28.4,30.06,WSW,243,3.0,15.0,54,0.00,,CLR,0.00,448.00,VWS V14.01,2013-02-12 20:34:00,
2013-02-12 14:39:00,43.7,27.7,30.06,WSW,241,7.0,9.0,53,0.00,,CLR,0.00,397.00,VWS V14.01,2013-02-12 20:39:00,
2013-02-12 14:44:00,44.1,28.5,30.06,WSW,242,11.0,14.0,54,0.00,,CLR,0.00,299.00,VWS V14.01,2013-02-12 20:44:00,
2013-02-12 14:49:00,44.1,29.0,30.05,SW,233,1.0,12.0,55,0.00,,CLR,0.00,385.00,VWS V14.01,2013-02-12 20:49:00,
2013-02-12 14:54:00,44.9,28.4,30.05,WSW,238,9.0,9.0,52,0.00,,CLR,0.00,308.00,VWS V14.01,2013-02-12 20:54:00,
2013-02-12 14:59:00,44.6,27.6,30.05,SW,217,3.0,11.0,51,0.00,,CLR,0.00,290.00,VWS V14.01,2013-02-12 20:59:00,
2013-02-12 15:04:00,44.7,28.6,30.05,WSW,246,0.0,13.0,53,0.00,,CLR,0.00,274.00,VWS V14.01,2013-02-12 21:04:00,
2013-02-12 15:09:00,44.5,27.5,30.04,WSW,241,4.0,10.0,51,0.00,,CLR,0.00,253.00,VWS V14.01,2013-02-12 21:09:00,
2013-02-12 15:14:00,44.3,28.3,30.04,WSW,247,6.0,9.0,53,0.00,,CLR,0.00,288.00,VWS V14.01,2013-02-12 21:14:00,
2013-02-12 15:19:00,45.0,27.5,30.04,WSW,239,13.0,13.0,50,0.00,,CLR,0.00,257.00,VWS V14.01,2013-02-12 21:19:00,
2013-02-12 15:24:00,44.8,27.3,30.03,SW,236,9.0,16.0,50,0.00,,CLR,0.00,260.00,VWS V14.01,2013-02-12 21:24:00,
2013-02-12 15:30:00,45.0,28.0,30.04,WSW,249,7.0,14.0,51,0.00,,CLR,0.00,257.00,VWS V14.01,2013-02-12 21:30:00,
2013-02-12 15:35:00,44.9,27.4,30.04,SW,232,9.0,10.0,50,0.00,,CLR,0.00,237.00,VWS V14.01,2013-02-12 21:35:00,
2013-02-12 15:39:00,44.7,27.2,30.04,SW,232,15.0,16.0,50,0.00,,CLR,0.00,229.00,VWS V14.01,2013-02-12 21:39:00,
2013-02-12 15:44:00,44.5,26.5,30.03,SW,222,10.0,14.0,49,0.00,,CLR,0.00,218.00,VWS V14.01,2013-02-12 21:44:00,
2013-02-12 15:50:00,44.4,26.9,30.03,SW,224,14.0,18.0,50,0.00,,CLR,0.00,204.00,VWS V14.01,2013-02-12 21:50:00,
2013-02-12 15:55:00,44.3,27.3,30.03,WSW,252,2.0,9.0,51,0.00,,CLR,0.00,200.00,VWS V14.01,2013-02-12 21:55:00,
2013-02-12 16:00:00,44.3,27.3,30.03,WSW,241,9.0,13.0,51,0.00,,CLR,0.00,176.00,VWS V14.01,2013-02-12 22:00:00,
2013-02-12 16:05:00,44.3,28.3,30.03,WSW,256,0.0,4.0,53,0.00,,CLR,0.00,167.00,VWS V14.01,2013-02-12 22:05:00,
2013-02-12 16:10:00,44.3,27.3,30.03,West,263,5.0,9.0,51,0.00,,CLR,0.00,158.00,VWS V14.01,2013-02-12 22:10:00,
2013-02-12 16:15:00,44.1,27.1,30.02,WSW,257,5.0,9.0,51,0.00,,CLR,0.00,134.00,VWS V14.01,2013-02-12 22:15:00,
2013-02-12 16:20:00,44.0,27.0,30.02,WSW,255,4.0,11.0,51,0.00,,CLR,0.00,142.00,VWS V14.01,2013-02-12 22:20:00,
2013-02-12 16:25:00,44.0,27.0,30.03,WSW,249,2.0,11.0,51,0.00,,CLR,0.00,130.00,VWS V14.01,2013-02-12 22:25:00,
2013-02-12 16:30:00,43.9,27.0,30.02,WSW,254,0.0,5.0,51,0.00,,CLR,0.00,118.00,VWS V14.01,2013-02-12 22:30:00,
2013-02-12 16:35:00,43.7,27.2,30.02,WSW,251,2.0,5.0,52,0.00,,CLR,0.00,98.00,VWS V14.01,2013-02-12 22:35:00,
2013-02-12 16:40:00,43.6,27.1,30.01,SW,232,0.0,0.0,52,0.00,,CLR,0.00,91.00,VWS V14.01,2013-02-12 22:40:00,
2013-02-12 16:45:00,43.2,27.2,30.01,WSW,245,9.0,10.0,53,0.00,,CLR,0.00,77.00,VWS V14.01,2013-02-12 22:45:00,
2013-02-12 16:50:00,43.0,27.5,30.01,WSW,251,0.0,9.0,54,0.00,,CLR,0.00,69.00,VWS V14.01,2013-02-12 22:50:00,
2013-02-12 16:55:00,42.9,27.0,30.02,WSW,253,7.0,7.0,53,0.00,,CLR,0.00,54.00,VWS V14.01,2013-02-12 22:55:00,
2013-02-12 17:00:00,42.6,27.1,30.02,West,259,0.0,6.0,54,0.00,,CLR,0.00,49.00,VWS V14.01,2013-02-12 23:00:00,
2013-02-12 17:05:00,42.5,27.0,30.02,West,260,0.0,0.0,54,0.00,,CLR,0.00,40.00,VWS V14.01,2013-02-12 23:05:00,
2013-02-12 17:10:00,41.9,27.4,30.02,West,262,0.0,0.0,56,0.00,,CLR,0.00,37.00,VWS V14.01,2013-02-12 23:10:00,
2013-02-12 17:15:00,41.5,27.4,30.02,West,259,0.0,0.0,57,0.00,,CLR,0.00,30.00,VWS V14.01,2013-02-12 23:15:00,
2013-02-12 17:20:00,41.2,27.1,30.02,West,266,0.0,0.0,57,0.00,,CLR,0.00,21.00,VWS V14.01,2013-02-12 23:20:00,
2013-02-12 17:25:00,41.0,27.0,30.02,West,274,0.0,0.0,57,0.00,,CLR,0.00,16.00,VWS V14.01,2013-02-12 23:25:00,
2013-02-12 17:30:00,40.9,26.9,30.02,West,264,0.0,0.0,57,0.00,,CLR,0.00,11.00,VWS V14.01,2013-02-12 23:30:00,
2013-02-12 17:35:00,40.9,26.9,30.02,WSW,257,0.0,0.0,57,0.00,,CLR,0.00,7.00,VWS V14.01,2013-02-12 23:35:00,
2013-02-12 17:40:00,40.8,26.3,30.02,West,272,0.0,0.0,56,0.00,,CLR,0.00,5.00,VWS V14.01,2013-02-12 23:40:00,
2013-02-12 17:45:00,40.7,26.2,30.02,West,266,0.0,0.0,56,0.00,,CLR,0.00,0.00,VWS V14.01,2013-02-12 23:45:00,
2013-02-12 17:50:00,40.6,26.1,30.02,West,266,0.0,0.0,56,0.00,,CLR,0.00,0.00,VWS V14.01,2013-02-12 23:50:00,
2013-02-12 17:55:00,40.5,26.5,30.01,West,266,0.0,0.0,57,0.00,,CLR,0.00,0.00,VWS V14.01,2013-02-12 23:55:00,
2013-02-12 18:00:00,40.2,26.2,30.01,West,265,0.0,0.0,57,0.00,,CLR,0.00,0.00,VWS V14.01,2013-02-13 00:00:00,
2013-02-12 18:05:00,40.0,26.4,30.01,West,265,0.0,0.0,58,0.00,,CLR,0.00,0.00,VWS V14.01,2013-02-13 00:05:00,
2013-02-12 18:10:00,39.7,26.1,30.01,West,265,0.0,0.0,58,0.00,,CLR,0.00,0.00,VWS V14.01,2013-02-13 00:10:00,
2013-02-12 18:15:00,39.4,25.9,30.01,West,265,0.0,0.0,58,0.00,,CLR,0.00,0.00,VWS V14.01,2013-02-13 00:15:00,
2013-02-12 18:20:00,39.1,26.0,30.01,West,265,0.0,0.0,59,0.00,,CLR,0.00,0.00,VWS V14.01,2013-02-13 00:20:00,
2013-02-12 18:25:00,38.8,25.7,30.01,West,265,0.0,0.0,59,0.00,,CLR,0.00,0.00,VWS V14.01,2013-02-13 00:25:00,
2013-02-12 18:30:00,38.6,25.9,30.01,West,265,0.0,0.0,60,0.00,,CLR,0.00,0.00,VWS V14.01,2013-02-13 00:30:00,
2013-02-12 18:35:00,38.4,25.7,30.01,West,265,0.0,0.0,60,0.00,,CLR,0.00,0.00,VWS V14.01,2013-02-13 00:35:00,
2013-02-12 18:40:00,38.0,25.8,30.01,West,265,0.0,0.0,61,0.00,,CLR,0.00,0.00,VWS V14.01,2013-02-13 00:40:00,
2013-02-12 18:45:00,37.7,25.9,30.00,West,265,0.0,0.0,62,0.00,,CLR,0.00,0.00,VWS V14.01,2013-02-13 00:45:00,
2013-02-12 18:50:00,37.3,25.5,30.00,West,265,0.0,0.0,62,0.00,,CLR,0.00,0.00,VWS V14.01,2013-02-13 00:50:00,
2013-02-12 18:56:00,36.8,25.4,30.00,West,265,0.0,0.0,63,0.00,,CLR,0.00,0.00,VWS V14.01,2013-02-13 00:56:00,
2013-02-12 19:01:00,36.4,25.4,30.00,West,265,0.0,0.0,64,0.00,,CLR,0.00,0.00,VWS V14.01,2013-02-13 01:01:00,
2013-02-12 19:06:00,35.8,25.2,30.00,West,265,0.0,0.0,65,0.00,,CLR,0.00,0.00,VWS V14.01,2013-02-13 01:06:00,
2013-02-12 19:11:00,35.3,25.1,30.00,West,263,0.0,0.0,66,0.00,,CLR,0.00,0.00,VWS V14.01,2013-02-13 01:11:00,
2013-02-12 19:16:00,35.0,25.2,30.00,West,263,0.0,0.0,67,0.00,,CLR,0.00,0.00,VWS V14.01,2013-02-13 01:16:00,
2013-02-12 19:21:00,34.6,25.1,30.00,West,263,0.0,0.0,68,0.00,,CLR,0.00,0.00,VWS V14.01,2013-02-13 01:21:00,
2013-02-12 19:26:00,34.4,25.3,30.00,West,262,0.0,0.0,69,0.00,,CLR,0.00,0.00,VWS V14.01,2013-02-13 01:26:00,
2013-02-12 19:31:00,34.3,25.5,30.00,WSW,253,0.0,0.0,70,0.00,,CLR,0.00,0.00,VWS V14.01,2013-02-13 01:31:00,
2013-02-12 19:36:00,34.1,25.4,30.00,WSW,253,0.0,0.0,70,0.00,,CLR,0.00,0.00,VWS V14.01,2013-02-13 01:36:00,
2013-02-12 19:41:00,34.0,25.3,30.00,WSW,253,0.0,0.0,70,0.00,,CLR,0.00,0.00,VWS V14.01,2013-02-13 01:41:00,
2013-02-12 19:46:00,33.9,25.5,29.99,WSW,253,0.0,0.0,71,0.00,,CLR,0.00,0.00,VWS V14.01,2013-02-13 01:46:00,
2013-02-12 19:51:00,33.7,25.3,29.99,WSW,253,0.0,0.0,71,0.00,,CLR,0.00,0.00,VWS V14.01,2013-02-13 01:51:00,
2013-02-12 19:56:00,33.5,25.5,30.00,WSW,253,0.0,0.0,72,0.00,,CLR,0.00,0.00,VWS V14.01,2013-02-13 01:56:00,
2013-02-12 20:01:00,33.3,25.3,29.99,WSW,253,0.0,0.0,72,0.00,,CLR,0.00,0.00,VWS V14.01,2013-02-13 02:01:00,
2013-02-12 20:06:00,33.2,25.5,29.99,WSW,253,0.0,0.0,73,0.00,,CLR,0.00,0.00,VWS V14.01,2013-02-13 02:06:00,
2013-02-12 20:11:00,33.0,25.3,29.99,WSW,253,0.0,0.0,73,0.00,,CLR,0.00,0.00,VWS V14.01,2013-02-13 02:11:00,
2013-02-12 20:16:00,32.8,25.1,29.99,WSW,253,0.0,0.0,73,0.00,,CLR,0.00,0.00,VWS V14.01,2013-02-13 02:16:00,
2013-02-12 20:21:00,32.7,25.3,29.99,WSW,253,0.0,0.0,74,0.00,,CLR,0.00,0.00,VWS V14.01,2013-02-13 02:21:00,
2013-02-12 20:26:00,32.6,25.2,29.99,WSW,253,0.0,0.0,74,0.00,,CLR,0.00,0.00,VWS V14.01,2013-02-13 02:26:00,
2013-02-12 20:31:00,32.4,25.0,29.99,WSW,253,0.0,0.0,74,0.00,,CLR,0.00,0.00,VWS V14.01,2013-02-13 02:31:00,
2013-02-12 20:36:00,32.3,25.3,29.99,WSW,253,0.0,0.0,75,0.00,,CLR,0.00,0.00,VWS V14.01,2013-02-13 02:36:00,
2013-02-12 20:41:00,32.2,25.5,29.99,WSW,253,0.0,0.0,76,0.00,,CLR,0.00,0.00,VWS V14.01,2013-02-13 02:41:00,
2013-02-12 20:46:00,32.1,25.4,29.98,WSW,253,0.0,0.0,76,0.00,,CLR,0.00,0.00,VWS V14.01,2013-02-13 02:46:00,
2013-02-12 20:51:00,32.0,25.3,29.98,WSW,253,0.0,0.0,76,0.00,,CLR,0.00,0.00,VWS V14.01,2013-02-13 02:51:00,
2013-02-12 20:56:00,31.9,25.5,29.99,WSW,253,0.0,0.0,77,0.00,,CLR,0.00,0.00,VWS V14.01,2013-02-13 02:56:00,
2013-02-12 21:01:00,31.7,25.3,29.98,WSW,251,0.0,0.0,77,0.00,,CLR,0.00,0.00,VWS V14.01,2013-02-13 03:01:00,
2013-02-12 21:06:00,31.7,25.3,29.98,WSW,249,0.0,0.0,77,0.00,,CLR,0.00,0.00,VWS V14.01,2013-02-13 03:06:00,
2013-02-12 21:11:00,31.6,25.2,29.99,WSW,249,0.0,0.0,77,0.00,,CLR,0.00,0.00,VWS V14.01,2013-02-13 03:11:00,
2013-02-12 21:16:00,31.6,25.2,29.99,WSW,249,0.0,0.0,77,0.00,,CLR,0.00,0.00,VWS V14.01,2013-02-13 03:16:00,
2013-02-12 21:21:00,31.6,25.2,29.99,SW,218,0.0,0.0,77,0.00,,CLR,0.00,0.00,VWS V14.01,2013-02-13 03:21:00,
2013-02-12 21:26:00,31.7,25.3,29.98,SW,219,5.0,6.0,77,0.00,,CLR,0.00,0.00,VWS V14.01,2013-02-13 03:26:00,
2013-02-12 21:31:00,31.7,25.3,29.98,SW,216,0.0,0.0,77,0.00,,CLR,0.00,0.00,VWS V14.01,2013-02-13 03:31:00,
2013-02-12 21:36:00,32.0,25.9,29.98,SSW,202,6.0,6.0,78,0.00,,CLR,0.00,0.00,VWS V14.01,2013-02-13 03:36:00,
2013-02-12 21:41:00,32.6,26.5,29.98,SW,221,5.0,6.0,78,0.00,,CLR,0.00,0.00,VWS V14.01,2013-02-13 03:41:00,
2013-02-12 21:46:00,32.9,26.5,29.98,SW,220,5.0,10.0,77,0.00,,CLR,0.00,0.00,VWS V14.01,2013-02-13 03:46:00,
2013-02-12 21:51:00,33.4,27.0,29.98,SW,220,5.0,12.0,77,0.00,,CLR,0.00,0.00,VWS V14.01,2013-02-13 03:51:00,
2013-02-12 21:56:00,33.6,26.9,29.98,SW,216,11.0,12.0,76,0.00,,CLR,0.00,0.00,VWS V14.01,2013-02-13 03:56:00,
2013-02-12 22:01:00,33.7,26.6,29.98,SW,230,6.0,12.0,75,0.00,,CLR,0.00,0.00,VWS V14.01,2013-02-13 04:01:00,
2013-02-12 22:06:00,33.9,26.8,29.98,SW,215,12.0,13.0,75,0.00,,CLR,0.00,0.00,VWS V14.01,2013-02-13 04:06:00,
2013-02-12 22:11:00,33.9,26.8,29.98,SW,226,5.0,6.0,75,0.00,,CLR,0.00,0.00,VWS V14.01,2013-02-13 04:11:00,
2013-02-12 22:16:00,33.8,26.4,29.98,SW,220,9.0,12.0,74,0.00,,CLR,0.00,0.00,VWS V14.01,2013-02-13 04:16:00,
2013-02-12 22:21:00,33.7,26.6,29.98,SW,230,5.0,11.0,75,0.00,,CLR,0.00,0.00,VWS V14.01,2013-02-13 04:21:00,
2013-02-12 22:26:00,33.7,26.6,29.98,WSW,238,11.0,11.0,75,0.00,,CLR,0.00,0.00,VWS V14.01,2013-02-13 04:26:00,
2013-02-12 22:31:00,33.7,26.6,29.98,WSW,238,4.0,11.0,75,0.00,,CLR,0.00,0.00,VWS V14.01,2013-02-13 04:31:00,
2013-02-12 22:36:00,33.6,26.5,29.98,SW,228,7.0,12.0,75,0.00,,CLR,0.00,0.00,VWS V14.01,2013-02-13 04:36:00,
2013-02-12 22:41:00,33.6,26.5,29.97,WSW,239,4.0,11.0,75,0.00,,CLR,0.00,0.00,VWS V14.01,2013-02-13 04:41:00,
2013-02-12 22:46:00,33.6,26.5,29.97,SW,218,11.0,14.0,75,0.00,,CLR,0.00,0.00,VWS V14.01,2013-02-13 04:46:00,
2013-02-12 22:51:00,33.5,26.4,29.97,SW,228,9.0,12.0,75,0.00,,CLR,0.00,0.00,VWS V14.01,2013-02-13 04:51:00,
2013-02-12 22:56:00,33.8,26.7,29.97,SW,223,14.0,15.0,75,0.00,,CLR,0.00,0.00,VWS V14.01,2013-02-13 04:56:00,
2013-02-12 23:00:00,34.0,26.9,29.97,WSW,238,8.0,16.0,75,0.00,,CLR,0.00,0.00,VWS V14.01,2013-02-13 05:00:00,
2013-02-12 23:05:00,34.2,26.5,29.97,WSW,238,12.0,14.0,73,0.00,,CLR,0.00,0.00,VWS V14.01,2013-02-13 05:05:00,
2013-02-12 23:10:00,34.2,26.5,29.96,WSW,237,12.0,14.0,73,0.00,,CLR,0.00,0.00,VWS V14.01,2013-02-13 05:10:00,
2013-02-12 23:15:00,34.2,26.5,29.96,WSW,245,11.0,16.0,73,0.00,,CLR,0.00,0.00,VWS V14.01,2013-02-13 05:15:00,
2013-02-12 23:20:00,34.1,26.4,29.97,West,264,0.0,13.0,73,0.00,,CLR,0.00,0.00,VWS V14.01,2013-02-13 05:20:00,
2013-02-12 23:25:00,34.1,26.4,29.97,SW,232,1.0,3.0,73,0.00,,CLR,0.00,0.00,VWS V14.01,2013-02-13 05:25:00,
2013-02-12 23:30:00,34.0,26.3,29.97,WSW,249,11.0,11.0,73,0.00,,CLR,0.00,0.00,VWS V14.01,2013-02-13 05:30:00,
2013-02-12 23:35:00,33.8,26.1,29.97,WSW,248,0.0,10.0,73,0.00,,CLR,0.00,0.00,VWS V14.01,2013-02-13 05:35:00,
2013-02-12 23:40:00,33.7,26.3,29.97,WSW,253,0.0,0.0,74,0.00,,CLR,0.00,0.00,VWS V14.01,2013-02-13 05:40:00,
2013-02-12 23:45:00,33.5,26.1,29.97,WSW,249,9.0,11.0,74,0.00,,CLR,0.00,0.00,VWS V14.01,2013-02-13 05:45:00,
2013-02-12 23:50:00,33.3,25.9,29.97,WSW,243,5.0,11.0,74,0.00,,CLR,0.00,0.00,VWS V14.01,2013-02-13 05:50:00,
2013-02-12 23:55:00,33.0,26.0,29.96,WSW,239,8.0,12.0,75,0.00,,CLR,0.00,0.00,VWS V14.01,2013-02-13 05:55:00,